Погода в Алимкенте

Узбекистан     40°57′30″N   69°09′51″E
темп.,
°C
ветер,
м/с
пор.,
м/с
влажн.,
%
обл.,
%
осадки,
мм/ч
давл.,
гПа
погр.,
м
27 февраля, сб
сб2723:00−4св2362100 0.0 1030123
02:00−3св1258100 0.0 1028100
05:00−3с1156100 0.0 102948
08:00−2в1252100 0.0 1029126
11:00+1вюв2339100 0.1 1029394
14:00+5ююв444381 0.0 10291214
17:00+5юв335144 0.0 1029859
20:00+1вюв34520 0.0 103153
28 февраля, вс
вс2823:000вюв33550 0.0 103162
02:000в23540 0.0 102958
05:000вюв23520 0.0 102835
08:00+1вюв23510 0.0 102664
11:00+7в12350 0.0 1023438
14:00+9всв22330 0.0 1021594
17:00+10ссв22370 0.0 1020428
20:00+5всв22500 0.0 102222
1 марта, пн
пн123:00+4всв225840 0.0 102122
02:00+4всв1255100 0.0 102122
05:00+4в2253100 0.0 102122
08:00+4всв2249100 0.0 102122
11:00+11ю013068 0.0 1020269
14:00+15св01230 0.0 1019477
17:00+16вюв11300 0.0 101871
20:00+11вюв22430 0.0 102122
2 марта, вт
вт223:00+10юв34360 0.0 102145
02:00+9ююз233767 0.0 102123
05:00+9ююв223283 0.0 102128
08:00+8с3341100 0.0 102259
11:00+13ссз3428100 0.0 1022409
14:00+15с4425100 0.0 1020652
17:00+14ссз3533100 0.0 1020498
20:00+12ссз2244100 0.0 102229
3 марта, ср
ср323:00+11всв2247100 0.0 102224
02:00+11ссв1250100 0.0 102126
05:00+9в3474100 0.8 1021121
08:00+8юв6881100 0.8 1021360
11:00+10юв5471100 1.6 1021409
14:00+11всв2266100 0.4 1019739
17:00+8с3485100 5.1 1019293
20:00+9в587598 1.4 1020261